Time,TemperatureF,DewpointF,PressureIn,WindDirection,WindDirectionDegrees,WindSpeedMPH,WindSpeedGustMPH,Humidity,HourlyPrecipIn,Conditions,Clouds,dailyrainin,SoftwareType,DateUTC
2015-07-07 00:03:00,64.0,62.8,30.06,ENE,66,0.0,0.0,96,0.00,,---,0.00,VWS V15.00,2015-07-07 04:03:00,
2015-07-07 00:08:00,63.9,62.7,30.06,ENE,65,0.0,0.0,96,0.00,,---,0.00,VWS V15.00,2015-07-07 04:08:00,
2015-07-07 00:13:00,63.9,63.0,30.06,ENE,65,0.0,0.0,97,0.00,,---,0.00,VWS V15.00,2015-07-07 04:13:00,
2015-07-07 00:18:00,63.8,62.9,30.06,ENE,65,0.0,0.0,97,0.00,,---,0.00,VWS V15.00,2015-07-07 04:18:00,
2015-07-07 00:23:00,63.8,62.9,30.06,ENE,66,0.0,0.0,97,0.00,,---,0.00,VWS V15.00,2015-07-07 04:23:00,
2015-07-07 00:28:00,63.7,62.8,30.06,ENE,65,0.0,1.0,97,0.00,,---,0.00,VWS V15.00,2015-07-07 04:28:00,
2015-07-07 00:33:00,63.7,62.8,30.06,ENE,65,0.0,0.0,97,0.00,,---,0.00,VWS V15.00,2015-07-07 04:33:00,
2015-07-07 00:38:00,63.7,62.8,30.06,ENE,65,0.0,0.0,97,0.00,,---,0.00,VWS V15.00,2015-07-07 04:38:00,
2015-07-07 00:43:00,63.7,62.8,30.06,ENE,65,0.0,0.0,97,0.00,,---,0.00,VWS V15.00,2015-07-07 04:43:00,
2015-07-07 00:48:00,63.9,63.0,30.06,ENE,65,0.0,0.0,97,0.00,,---,0.00,VWS V15.00,2015-07-07 04:48:00,
2015-07-07 00:53:00,64.1,63.2,30.06,ENE,65,0.0,0.0,97,0.00,,---,0.00,VWS V15.00,2015-07-07 04:53:00,
2015-07-07 00:58:00,64.2,63.3,30.06,ENE,65,0.0,0.0,97,0.00,,---,0.00,VWS V15.00,2015-07-07 04:58:00,
2015-07-07 01:03:00,64.3,63.4,30.06,ENE,65,0.0,0.0,97,0.00,,---,0.00,VWS V15.00,2015-07-07 05:03:00,
2015-07-07 01:13:00,64.6,63.7,30.06,ENE,65,0.0,0.0,97,0.00,,---,0.00,VWS V15.00,2015-07-07 05:13:00,
2015-07-07 01:18:00,64.6,63.7,30.06,ENE,65,0.0,1.0,97,0.00,,---,0.00,VWS V15.00,2015-07-07 05:18:00,
2015-07-07 01:23:00,64.5,63.6,30.06,ENE,65,0.0,1.0,97,0.00,,---,0.00,VWS V15.00,2015-07-07 05:23:00,
2015-07-07 01:28:00,64.5,63.6,30.06,ENE,65,0.0,1.0,97,0.00,,---,0.00,VWS V15.00,2015-07-07 05:28:00,
2015-07-07 01:33:00,64.5,63.6,30.06,ENE,65,0.0,0.0,97,0.00,,---,0.00,VWS V15.00,2015-07-07 05:33:00,
2015-07-07 01:38:00,64.5,63.6,30.06,ENE,65,0.0,0.0,97,0.00,,---,0.00,VWS V15.00,2015-07-07 05:38:00,
2015-07-07 01:43:00,64.6,63.7,30.06,ENE,65,0.0,0.0,97,0.00,,---,0.00,VWS V15.00,2015-07-07 05:43:00,
2015-07-07 01:48:00,64.7,63.8,30.06,ENE,65,0.0,1.0,97,0.00,,---,0.00,VWS V15.00,2015-07-07 05:48:00,
2015-07-07 01:53:00,64.8,63.9,30.06,ENE,65,0.0,1.0,97,0.00,,---,0.00,VWS V15.00,2015-07-07 05:53:00,
2015-07-07 01:58:00,64.8,63.9,30.06,ENE,65,0.0,1.0,97,0.00,,---,0.00,VWS V15.00,2015-07-07 05:58:00,
2015-07-07 02:03:00,64.9,64.0,30.06,ENE,65,0.0,0.0,97,0.00,,---,0.00,VWS V15.00,2015-07-07 06:03:00,
2015-07-07 02:08:00,64.9,64.0,30.06,ENE,65,0.0,0.0,97,0.00,,---,0.00,VWS V15.00,2015-07-07 06:08:00,
2015-07-07 02:13:00,65.0,64.1,30.06,ENE,65,0.0,0.0,97,0.00,,---,0.00,VWS V15.00,2015-07-07 06:13:00,
2015-07-07 02:18:00,65.0,64.1,30.06,ENE,65,0.0,0.0,97,0.00,,---,0.00,VWS V15.00,2015-07-07 06:18:00,
2015-07-07 02:23:00,65.0,64.1,30.05,ENE,65,0.0,0.0,97,0.00,,---,0.00,VWS V15.00,2015-07-07 06:23:00,
2015-07-07 02:28:00,64.9,64.0,30.05,ENE,65,0.0,0.0,97,0.00,,---,0.00,VWS V15.00,2015-07-07 06:28:00,
2015-07-07 02:33:00,65.0,64.1,30.05,ENE,65,0.0,0.0,97,0.00,,---,0.00,VWS V15.00,2015-07-07 06:33:00,
2015-07-07 02:38:00,65.0,64.1,30.05,ENE,65,0.0,0.0,97,0.00,,---,0.00,VWS V15.00,2015-07-07 06:38:00,
2015-07-07 02:43:00,65.1,64.2,30.05,ENE,65,0.0,0.0,97,0.00,,---,0.00,VWS V15.00,2015-07-07 06:43:00,
2015-07-07 02:48:00,65.2,64.3,30.05,ENE,65,0.0,0.0,97,0.00,,---,0.00,VWS V15.00,2015-07-07 06:48:00,
2015-07-07 02:53:00,65.3,64.4,30.04,ENE,65,0.0,0.0,97,0.00,,---,0.00,VWS V15.00,2015-07-07 06:53:00,
2015-07-07 02:58:00,65.3,64.4,30.04,ENE,65,0.0,0.0,97,0.00,,---,0.00,VWS V15.00,2015-07-07 06:58:00,
2015-07-07 03:03:00,65.4,64.5,30.04,ENE,65,0.0,0.0,97,0.00,,---,0.00,VWS V15.00,2015-07-07 07:03:00,
2015-07-07 03:08:00,65.4,64.5,30.04,ENE,65,0.0,0.0,97,0.00,,---,0.00,VWS V15.00,2015-07-07 07:08:00,
2015-07-07 03:13:00,65.6,64.7,30.04,ENE,65,0.0,0.0,97,0.00,,---,0.00,VWS V15.00,2015-07-07 07:13:00,
2015-07-07 03:18:00,65.7,64.8,30.04,ENE,65,0.0,0.0,97,0.00,,---,0.00,VWS V15.00,2015-07-07 07:18:00,
2015-07-07 03:23:00,65.8,64.9,30.04,ENE,65,0.0,0.0,97,0.00,,---,0.00,VWS V15.00,2015-07-07 07:23:00,
2015-07-07 03:28:00,65.9,65.0,30.04,ENE,65,0.0,0.0,97,0.00,,---,0.00,VWS V15.00,2015-07-07 07:28:00,
2015-07-07 03:33:00,66.0,65.1,30.04,ENE,65,0.0,0.0,97,0.00,,---,0.00,VWS V15.00,2015-07-07 07:33:00,
2015-07-07 03:38:00,66.2,65.3,30.04,ENE,65,0.0,0.0,97,0.00,,---,0.00,VWS V15.00,2015-07-07 07:38:00,
2015-07-07 03:43:00,66.2,65.3,30.04,ENE,65,0.0,0.0,97,0.00,,---,0.00,VWS V15.00,2015-07-07 07:43:00,
2015-07-07 03:48:00,66.2,65.3,30.04,ENE,65,0.0,0.0,97,0.00,,---,0.00,VWS V15.00,2015-07-07 07:48:00,
2015-07-07 03:53:00,66.3,65.4,30.04,ENE,65,0.0,0.0,97,0.00,,---,0.00,VWS V15.00,2015-07-07 07:53:00,
2015-07-07 03:58:00,66.4,65.5,30.04,ENE,65,0.0,0.0,97,0.00,,---,0.00,VWS V15.00,2015-07-07 07:58:00,
2015-07-07 04:03:00,66.5,65.6,30.04,ENE,65,0.0,0.0,97,0.00,,---,0.00,VWS V15.00,2015-07-07 08:03:00,
2015-07-07 04:08:00,66.5,65.6,30.04,ENE,65,0.0,0.0,97,0.00,,---,0.00,VWS V15.00,2015-07-07 08:08:00,
2015-07-07 04:13:00,66.6,65.7,30.04,ENE,65,0.0,0.0,97,0.00,,---,0.00,VWS V15.00,2015-07-07 08:13:00,
2015-07-07 04:18:00,66.7,65.8,30.04,ENE,65,0.0,0.0,97,0.00,,---,0.00,VWS V15.00,2015-07-07 08:18:00,
2015-07-07 04:23:00,66.8,65.9,30.04,ENE,65,0.0,0.0,97,0.00,,---,0.00,VWS V15.00,2015-07-07 08:23:00,
2015-07-07 04:28:00,66.8,65.6,30.04,ENE,65,0.0,0.0,96,0.00,,---,0.00,VWS V15.00,2015-07-07 08:28:00,
2015-07-07 04:33:00,66.8,65.6,30.04,ENE,65,0.0,0.0,96,0.00,,---,0.00,VWS V15.00,2015-07-07 08:33:00,
2015-07-07 04:38:00,66.8,65.6,30.04,ENE,65,0.0,0.0,96,0.00,,---,0.00,VWS V15.00,2015-07-07 08:38:00,
2015-07-07 04:43:00,66.9,65.7,30.04,ENE,65,0.0,0.0,96,0.00,,---,0.00,VWS V15.00,2015-07-07 08:43:00,
2015-07-07 04:48:00,66.9,65.7,30.04,ENE,65,0.0,0.0,96,0.00,,---,0.00,VWS V15.00,2015-07-07 08:48:00,
2015-07-07 04:53:00,66.9,65.7,30.04,ENE,65,0.0,0.0,96,0.00,,---,0.00,VWS V15.00,2015-07-07 08:53:00,
2015-07-07 04:58:00,66.9,65.7,30.04,ENE,65,0.0,0.0,96,0.00,,---,0.00,VWS V15.00,2015-07-07 08:58:00,
2015-07-07 05:03:00,67.0,65.8,30.04,ENE,65,0.0,0.0,96,0.00,,---,0.00,VWS V15.00,2015-07-07 09:03:00,
2015-07-07 05:08:00,67.0,65.8,30.04,ENE,65,0.0,0.0,96,0.00,,---,0.00,VWS V15.00,2015-07-07 09:08:00,
2015-07-07 05:13:00,67.1,65.9,30.04,ENE,65,0.0,0.0,96,0.00,,---,0.00,VWS V15.00,2015-07-07 09:13:00,
2015-07-07 05:18:00,67.1,65.9,30.04,ENE,65,0.0,0.0,96,0.00,,---,0.00,VWS V15.00,2015-07-07 09:18:00,
2015-07-07 05:23:00,67.1,65.9,30.04,ENE,65,0.0,0.0,96,0.00,,---,0.00,VWS V15.00,2015-07-07 09:23:00,
2015-07-07 05:28:00,67.3,66.1,30.04,ENE,65,0.0,0.0,96,0.00,,---,0.00,VWS V15.00,2015-07-07 09:28:00,
2015-07-07 05:33:00,67.4,66.2,30.04,ENE,65,0.0,0.0,96,0.00,,---,0.00,VWS V15.00,2015-07-07 09:33:00,
2015-07-07 05:38:00,67.5,66.3,30.04,ENE,66,0.0,1.0,96,0.00,,---,0.00,VWS V15.00,2015-07-07 09:38:00,
2015-07-07 05:43:00,67.6,66.4,30.04,ENE,66,0.0,1.0,96,0.00,,---,0.00,VWS V15.00,2015-07-07 09:43:00,
2015-07-07 05:48:00,67.8,66.6,30.04,ENE,75,0.0,1.0,96,0.00,,---,0.00,VWS V15.00,2015-07-07 09:48:00,
2015-07-07 05:53:00,67.8,66.6,30.04,ENE,75,0.0,1.0,96,0.00,,---,0.00,VWS V15.00,2015-07-07 09:53:00,
2015-07-07 05:58:00,67.8,66.6,30.05,ENE,74,0.0,1.0,96,0.00,,---,0.00,VWS V15.00,2015-07-07 09:58:00,
2015-07-07 06:03:00,67.8,66.6,30.05,ENE,74,0.0,0.0,96,0.00,,---,0.00,VWS V15.00,2015-07-07 10:03:00,
2015-07-07 06:08:00,67.9,66.7,30.05,ENE,74,0.0,0.0,96,0.00,,---,0.00,VWS V15.00,2015-07-07 10:08:00,